{"data":{"norad_id":53226,"epoch":"2026-05-25T03:26:52.154016Z","epoch_age_seconds":73217,"freshness":"FRESH","line1":"1 53226U 22084AP  26145.14365919 -.00000707  00000+0 -44920-4 0  9998","line2":"2 53226  97.4472 205.0738 0001232 126.2034 233.9307 15.05651674210813","mean_motion":15.05651674,"eccentricity":0.0001232,"inclination_deg":97.4472,"raan_deg":205.0738,"arg_perigee_deg":126.2034,"mean_anomaly_deg":233.9307,"bstar":-4.492e-5,"rev_number":21081,"period_min":95.63965058229,"perigee_km":548.65253359486,"apogee_km":550.3595048348,"semimajor_km":6927.6430192148,"source":"CELESTRAK","updated_at":"2026-05-25T13:38:17.357206Z"}}